Regional Weather Roundup
Issued by NWS

Home | Current Version | Previous Version | Text Only | Print | Product List | Glossary Off
Versions: 1 2 3 4 5 6 7 8 9 10 11 12 13 14 15 16 17 18 19 20 21 22 23 24 25 26 27 28 29 30 31 32 33 34 35 36 37 38 39 40 41 42 43 44 45 46 47 48 49 50

000
ASUS43 KLMK 291502
RWRKY
KENTUCKY REGIONAL WEATHER ROUNDUP
NATIONAL WEATHER SERVICE LOUISVILLE KY
1100 AM EDT FRI JUL 29 2016

NOTE "FAIR" INDICATES FEW OR NO CLOUDS BELOW 12,000 FEET
WITH NO SIGNIFICANT WEATHER AND/OR OBSTRUCTIONS TO VISIBILITY.

KYZ001>023-026-027-061>063-070>075-291600-
WESTERN AND SOUTH CENTRAL KENTUCKY

CITY           SKY/WX    TMP DP  RH WIND       PRES   REMARKS
PADUCAH        CLOUDY    79  72  79 SW7       29.96R
HENDERSON      PTSUNNY   79  72  78 SW5       29.94R
OWENSBORO      LGT RAIN  76  75  96 SW5       29.97R FOG
HOPKINSVILLE   LGT RAIN  82  74  79 SW12      29.96F
BOWLING GREEN  TSTM      73  71  93 S5        29.98R VSB 1/4
GLASGOW        NOT AVBL
$$

KYZ024-025-028>034-038-045-046-053-291600-
NORTH CENTRAL KENTUCKY

CITY           SKY/WX    TMP DP  RH WIND       PRES   REMARKS
LOUISVILLE/SDF PTSUNNY   83  70  64 CALM      29.95R
LOUISVILLE/LOU MOSUNNY   80  69  69 CALM      29.96R
FORT KNOX      PTSUNNY   82  71  69 S6        29.96R
$$

KYZ035>037-039>044-047>052-055>060-089>105-291600-
NORTHEAST KENTUCKY

CITY           SKY/WX    TMP DP  RH WIND       PRES   REMARKS
LEXINGTON      CLOUDY    78  70  76 SW9       29.98R
COVINGTON      PTSUNNY   79  72  79 VRB5      29.96R
FRANKFORT      PTSUNNY   79  70  74 SW6       29.96R
$$

KYZ054-064>069-076>088-106>120-291600-
SOUTHEAST KENTUCKY

CITY           SKY/WX    TMP DP  RH WIND       PRES   REMARKS
JACKSON        CLOUDY    74  70  87 CALM      30.01S
LONDON         CLOUDY    74  70  87 S7        30.01S
SOMERSET       CLOUDY    77  72  83 SW6       30.01S
MIDDLESBORO    CLOUDY    76  71  87 CALM      30.02S
MONTICELLO     PTSUNNY  N/A N/A N/A N8        30.02R
$$




USA.gov is the U.S. government's official web portal to all federal, state and local government web resources and services.